Time,TemperatureF,DewpointF,PressureIn,WindDirection,WindDirectionDegrees,WindSpeedMPH,WindSpeedGustMPH,Humidity,HourlyPrecipIn,Conditions,Clouds,dailyrainin,SoftwareType,DateUTC
2013-01-09 00:01:00,20.9,-3.2,30.15,WSW,248,0.0,0.0,34,0.00,,,0.00,WUHU216HW,2013-01-09 05:01:00,
2013-01-09 00:02:00,20.9,-3.2,30.15,WSW,248,0.0,0.0,34,0.00,,,0.00,WUHU216HW,2013-01-09 05:02:00,
2013-01-09 00:06:00,20.9,-3.2,30.15,WSW,248,0.0,0.0,34,0.00,,,0.00,WUHU216HW,2013-01-09 05:06:00,
2013-01-09 00:07:00,20.9,-3.2,30.15,WSW,248,0.0,0.0,34,0.00,,,0.00,WUHU216HW,2013-01-09 05:07:00,
2013-01-09 00:29:00,20.3,-2.5,30.15,WSW,248,0.0,0.0,36,0.00,,,0.00,WUHU216HW,2013-01-09 05:29:00,
2013-01-09 00:30:00,20.3,-2.5,30.15,WSW,248,0.0,0.0,36,0.00,,,0.00,WUHU216HW,2013-01-09 05:30:00,
2013-01-09 00:34:00,20.3,-2.5,30.15,WSW,248,0.0,0.0,36,0.00,,,0.00,WUHU216HW,2013-01-09 05:34:00,
2013-01-09 00:35:00,20.3,-2.5,30.15,WSW,248,0.0,0.0,36,0.00,,,0.00,WUHU216HW,2013-01-09 05:35:00,
2013-01-09 00:59:00,19.4,-7.0,30.13,SSE,158,0.0,0.0,30,0.00,,,0.00,WUHU216HW,2013-01-09 05:59:00,
2013-01-09 01:00:00,19.4,-7.0,30.13,SSE,158,0.0,0.0,30,0.00,,,0.00,WUHU216HW,2013-01-09 06:00:00,
2013-01-09 01:04:00,19.4,-7.0,30.13,SSE,158,0.0,0.0,30,0.00,,,0.00,WUHU216HW,2013-01-09 06:04:00,
2013-01-09 01:05:00,19.4,-7.0,30.13,SSE,158,0.0,0.0,30,0.00,,,0.00,WUHU216HW,2013-01-09 06:05:00,
2013-01-09 01:29:00,19.1,-10.6,30.14,NE,45,0.0,0.0,26,0.00,,,0.00,WUHU216HW,2013-01-09 06:29:00,
2013-01-09 01:34:00,19.1,-10.6,30.14,NE,45,0.0,0.0,26,0.00,,,0.00,WUHU216HW,2013-01-09 06:34:00,
2013-01-09 01:35:00,19.1,-10.6,30.14,NE,45,0.0,0.0,26,0.00,,,0.00,WUHU216HW,2013-01-09 06:35:00,
2013-01-09 01:59:00,18.4,-21.3,30.13,NNE,23,0.0,0.0,16,0.00,,,0.00,WUHU216HW,2013-01-09 06:59:00,
2013-01-09 02:00:00,18.4,-21.3,30.13,NNE,23,0.0,0.0,16,0.00,,,0.00,WUHU216HW,2013-01-09 07:00:00,
2013-01-09 02:04:00,18.4,-21.3,30.13,NNE,23,0.0,0.0,16,0.00,,,0.00,WUHU216HW,2013-01-09 07:04:00,
2013-01-09 02:05:00,18.4,-21.3,30.13,NNE,23,0.0,0.0,16,0.00,,,0.00,WUHU216HW,2013-01-09 07:05:00,
2013-01-09 02:29:00,18.2,-21.4,30.14,NNE,23,0.0,0.0,16,0.00,,,0.00,WUHU216HW,2013-01-09 07:29:00,
2013-01-09 02:30:00,18.2,-21.4,30.14,NNE,23,0.0,0.0,16,0.00,,,0.00,WUHU216HW,2013-01-09 07:30:00,
2013-01-09 02:34:00,18.2,-21.4,30.14,NNE,23,0.0,0.0,16,0.00,,,0.00,WUHU216HW,2013-01-09 07:34:00,
2013-01-09 02:35:00,18.2,-21.4,30.14,NNE,23,0.0,0.0,16,0.00,,,0.00,WUHU216HW,2013-01-09 07:35:00,
2013-01-09 02:59:00,17.6,-18.0,30.13,NNE,23,0.0,0.0,19,0.00,,,0.00,WUHU216HW,2013-01-09 07:59:00,
2013-01-09 03:00:00,17.6,-18.0,30.13,NNE,23,0.0,0.0,19,0.00,,,0.00,WUHU216HW,2013-01-09 08:00:00,
2013-01-09 03:04:00,17.6,-18.0,30.13,NNE,23,0.0,0.0,19,0.00,,,0.00,WUHU216HW,2013-01-09 08:04:00,
2013-01-09 03:05:00,17.6,-18.0,30.13,NNE,23,0.0,0.0,19,0.00,,,0.00,WUHU216HW,2013-01-09 08:05:00,
2013-01-09 03:29:00,16.6,-17.6,30.13,North,0,0.0,0.0,20,0.00,,,0.00,WUHU216HW,2013-01-09 08:29:00,
2013-01-09 03:30:00,16.6,-17.6,30.13,North,0,0.0,0.0,20,0.00,,,0.00,WUHU216HW,2013-01-09 08:30:00,
2013-01-09 03:34:00,16.6,-17.6,30.13,North,0,0.0,0.0,20,0.00,,,0.00,WUHU216HW,2013-01-09 08:34:00,
2013-01-09 03:35:00,16.6,-17.6,30.13,North,0,0.0,0.0,20,0.00,,,0.00,WUHU216HW,2013-01-09 08:35:00,
2013-01-09 03:59:00,16.2,-21.8,30.13,NNE,23,0.0,0.0,17,0.00,,,0.00,WUHU216HW,2013-01-09 08:59:00,
2013-01-09 04:00:00,16.2,-21.8,30.13,NNE,23,0.0,0.0,17,0.00,,,0.00,WUHU216HW,2013-01-09 09:00:00,
2013-01-09 04:04:00,16.2,-21.8,30.13,NNE,23,0.0,0.0,17,0.00,,,0.00,WUHU216HW,2013-01-09 09:04:00,
2013-01-09 04:05:00,16.2,-21.8,30.13,NNE,23,0.0,0.0,17,0.00,,,0.00,WUHU216HW,2013-01-09 09:05:00,
2013-01-09 04:29:00,16.0,-23.2,30.12,NNE,23,0.0,0.0,16,0.00,,,0.00,WUHU216HW,2013-01-09 09:29:00,
2013-01-09 04:30:00,16.0,-23.2,30.12,NNE,23,0.0,0.0,16,0.00,,,0.00,WUHU216HW,2013-01-09 09:30:00,
2013-01-09 04:34:00,16.0,-23.2,30.12,NNE,23,0.0,0.0,16,0.00,,,0.00,WUHU216HW,2013-01-09 09:34:00,
2013-01-09 04:35:00,16.0,-23.2,30.12,NNE,23,0.0,0.0,16,0.00,,,0.00,WUHU216HW,2013-01-09 09:35:00,
2013-01-09 04:59:00,16.7,-30.4,30.12,NE,45,1.1,1.1,5,0.00,,,0.00,WUHU216HW,2013-01-09 09:59:00,
2013-01-09 05:00:00,16.7,-30.4,30.12,NE,45,1.1,1.1,5,0.00,,,0.00,WUHU216HW,2013-01-09 10:00:00,
2013-01-09 05:04:00,16.7,-30.4,30.12,NE,45,1.1,1.1,5,0.00,,,0.00,WUHU216HW,2013-01-09 10:04:00,
2013-01-09 05:05:00,16.7,-30.4,30.12,NE,45,1.1,1.1,5,0.00,,,0.00,WUHU216HW,2013-01-09 10:05:00,
2013-01-09 05:29:00,15.8,-31.1,30.12,North,0,0.0,0.0,8,0.00,,,0.00,WUHU216HW,2013-01-09 10:29:00,
2013-01-09 05:30:00,15.8,-31.1,30.12,North,0,0.0,0.0,8,0.00,,,0.00,WUHU216HW,2013-01-09 10:30:00,
2013-01-09 05:34:00,15.8,-31.1,30.12,North,0,0.0,0.0,8,0.00,,,0.00,WUHU216HW,2013-01-09 10:34:00,
2013-01-09 05:35:00,15.8,-31.1,30.12,North,0,0.0,0.0,8,0.00,,,0.00,WUHU216HW,2013-01-09 10:35:00,
2013-01-09 05:59:00,14.9,-26.6,30.12,NW,315,0.0,0.0,14,0.00,,,0.00,WUHU216HW,2013-01-09 10:59:00,
2013-01-09 06:04:00,14.9,-26.6,30.12,NW,315,0.0,0.0,14,0.00,,,0.00,WUHU216HW,2013-01-09 11:04:00,
2013-01-09 06:05:00,14.9,-26.6,30.12,NW,315,0.0,0.0,14,0.00,,,0.00,WUHU216HW,2013-01-09 11:05:00,
2013-01-09 06:29:00,16.2,-30.9,30.12,NNE,23,1.8,1.8,7,0.00,,,0.00,WUHU216HW,2013-01-09 11:29:00,
2013-01-09 06:30:00,16.2,-30.9,30.12,NNE,23,1.8,1.8,7,0.00,,,0.00,WUHU216HW,2013-01-09 11:30:00,
2013-01-09 06:34:00,16.2,-30.9,30.12,NNE,23,1.8,1.8,7,0.00,,,0.00,WUHU216HW,2013-01-09 11:34:00,
2013-01-09 06:35:00,16.2,-30.9,30.12,NNE,23,1.8,1.8,7,0.00,,,0.00,WUHU216HW,2013-01-09 11:35:00,
2013-01-09 06:59:00,15.1,-26.5,30.11,NNE,23,0.0,0.0,14,0.00,,,0.00,WUHU216HW,2013-01-09 11:59:00,
2013-01-09 07:00:00,15.1,-26.5,30.11,NNE,23,0.0,0.0,14,0.00,,,0.00,WUHU216HW,2013-01-09 12:00:00,
2013-01-09 07:04:00,15.1,-26.5,30.11,NNE,23,0.0,0.0,14,0.00,,,0.00,WUHU216HW,2013-01-09 12:04:00,
2013-01-09 07:05:00,15.1,-26.5,30.11,NNE,23,0.0,0.0,14,0.00,,,0.00,WUHU216HW,2013-01-09 12:05:00,
2013-01-09 07:29:00,15.1,-27.8,30.11,ESE,113,0.2,0.2,13,0.00,,,0.00,WUHU216HW,2013-01-09 12:29:00,
2013-01-09 07:30:00,15.1,-27.8,30.11,ESE,113,0.2,0.2,13,0.00,,,0.00,WUHU216HW,2013-01-09 12:30:00,
2013-01-09 07:34:00,15.1,-27.8,30.11,ESE,113,0.2,0.2,13,0.00,,,0.00,WUHU216HW,2013-01-09 12:34:00,
2013-01-09 07:35:00,15.1,-27.8,30.11,ESE,113,0.2,0.2,13,0.00,,,0.00,WUHU216HW,2013-01-09 12:35:00,
2013-01-09 07:59:00,16.4,-30.7,30.12,WNW,293,0.0,0.0,9,0.00,,,0.00,WUHU216HW,2013-01-09 12:59:00,
2013-01-09 08:00:00,16.4,-30.7,30.12,WNW,293,0.0,0.0,9,0.00,,,0.00,WUHU216HW,2013-01-09 13:00:00,
2013-01-09 08:04:00,16.4,-30.7,30.12,WNW,293,0.0,0.0,9,0.00,,,0.00,WUHU216HW,2013-01-09 13:04:00,
2013-01-09 08:05:00,16.4,-30.7,30.12,WNW,293,0.0,0.0,9,0.00,,,0.00,WUHU216HW,2013-01-09 13:05:00,
2013-01-09 08:29:00,16.4,-30.7,30.11,NNE,23,0.0,0.0,10,0.00,,,0.00,WUHU216HW,2013-01-09 13:29:00,
2013-01-09 08:30:00,16.4,-30.7,30.11,NNE,23,0.0,0.0,10,0.00,,,0.00,WUHU216HW,2013-01-09 13:30:00,
2013-01-09 08:34:00,16.4,-30.7,30.11,NNE,23,0.0,0.0,10,0.00,,,0.00,WUHU216HW,2013-01-09 13:34:00,
2013-01-09 08:35:00,16.4,-30.7,30.11,NNE,23,0.0,0.0,10,0.00,,,0.00,WUHU216HW,2013-01-09 13:35:00,
2013-01-09 08:59:00,17.1,-27.5,30.09,NE,45,0.4,0.4,12,0.00,,,0.00,WUHU216HW,2013-01-09 13:59:00,
2013-01-09 09:00:00,17.1,-27.5,30.09,NE,45,0.4,0.4,12,0.00,,,0.00,WUHU216HW,2013-01-09 14:00:00,
2013-01-09 09:04:00,17.1,-27.5,30.09,NE,45,0.4,0.4,12,0.00,,,0.00,WUHU216HW,2013-01-09 14:04:00,
2013-01-09 09:05:00,17.1,-27.5,30.09,NE,45,0.4,0.4,12,0.00,,,0.00,WUHU216HW,2013-01-09 14:05:00,
2013-01-09 09:29:00,19.1,-28.5,30.08,East,90,4.0,4.0,10,0.00,,,0.00,WUHU216HW,2013-01-09 14:29:00,
2013-01-09 09:30:00,19.1,-28.5,30.08,East,90,4.0,4.0,10,0.00,,,0.00,WUHU216HW,2013-01-09 14:30:00,
2013-01-09 09:35:00,19.1,-28.5,30.08,East,90,4.0,4.0,10,0.00,,,0.00,WUHU216HW,2013-01-09 14:35:00,
2013-01-09 09:59:00,20.5,-15.6,30.04,NNE,23,5.4,5.4,19,0.00,,,0.00,WUHU216HW,2013-01-09 14:59:00,
2013-01-09 10:00:00,20.5,-15.6,30.04,NNE,23,5.4,5.4,19,0.00,,,0.00,WUHU216HW,2013-01-09 15:00:00,
2013-01-09 10:04:00,20.5,-15.6,30.04,NNE,23,5.4,5.4,19,0.00,,,0.00,WUHU216HW,2013-01-09 15:04:00,
2013-01-09 10:05:00,20.5,-15.6,30.04,NNE,23,5.4,5.4,19,0.00,,,0.00,WUHU216HW,2013-01-09 15:05:00,
2013-01-09 10:29:00,20.5,-11.0,30.02,NNE,23,2.2,2.2,24,0.00,,,0.00,WUHU216HW,2013-01-09 15:29:00,
2013-01-09 10:30:00,20.5,-11.0,30.02,NNE,23,2.2,2.2,24,0.00,,,0.00,WUHU216HW,2013-01-09 15:30:00,
2013-01-09 10:34:00,20.5,-11.0,30.02,NNE,23,2.2,2.2,24,0.00,,,0.00,WUHU216HW,2013-01-09 15:34:00,
2013-01-09 10:35:00,20.5,-11.0,30.02,NNE,23,2.2,2.2,24,0.00,,,0.00,WUHU216HW,2013-01-09 15:35:00,
2013-01-09 10:59:00,22.7,-5.8,30.02,NNE,23,3.8,3.8,28,0.00,,,0.00,WUHU216HW,2013-01-09 15:59:00,
2013-01-09 11:00:00,22.7,-5.8,30.02,NNE,23,3.8,3.8,28,0.00,,,0.00,WUHU216HW,2013-01-09 16:00:00,
2013-01-09 11:04:00,22.7,-5.8,30.02,NNE,23,3.8,3.8,28,0.00,,,0.00,WUHU216HW,2013-01-09 16:04:00,
2013-01-09 11:05:00,22.7,-5.8,30.02,NNE,23,3.8,3.8,28,0.00,,,0.00,WUHU216HW,2013-01-09 16:05:00,
2013-01-09 11:29:00,23.9,-8.8,30.00,NE,45,1.1,1.1,23,0.00,,,0.00,WUHU216HW,2013-01-09 16:29:00,
2013-01-09 11:30:00,23.9,-8.8,30.00,NE,45,1.1,1.1,23,0.00,,,0.00,WUHU216HW,2013-01-09 16:30:00,
2013-01-09 11:34:00,23.9,-8.8,30.00,NE,45,1.1,1.1,23,0.00,,,0.00,WUHU216HW,2013-01-09 16:34:00,
2013-01-09 11:35:00,23.9,-8.8,30.00,NE,45,1.1,1.1,23,0.00,,,0.00,WUHU216HW,2013-01-09 16:35:00,
2013-01-09 11:59:00,25.2,-4.4,29.97,ENE,68,2.0,2.0,27,0.00,,,0.00,WUHU216HW,2013-01-09 16:59:00,
2013-01-09 12:00:00,25.2,-4.4,29.97,ENE,68,2.0,2.0,27,0.00,,,0.00,WUHU216HW,2013-01-09 17:00:00,
2013-01-09 12:04:00,25.2,-4.4,29.97,ENE,68,2.0,2.0,27,0.00,,,0.00,WUHU216HW,2013-01-09 17:04:00,
2013-01-09 12:05:00,25.2,-4.4,29.97,ENE,68,2.0,2.0,27,0.00,,,0.00,WUHU216HW,2013-01-09 17:05:00,
2013-01-09 12:29:00,23.8,-1.9,29.91,ENE,68,8.9,8.9,32,0.00,,,0.00,WUHU216HW,2013-01-09 17:29:00,
2013-01-09 12:30:00,23.8,-1.9,29.91,ENE,68,8.9,8.9,32,0.00,,,0.00,WUHU216HW,2013-01-09 17:30:00,
2013-01-09 12:34:00,23.8,-1.9,29.91,ENE,68,8.9,8.9,32,0.00,,,0.00,WUHU216HW,2013-01-09 17:34:00,
2013-01-09 12:35:00,23.8,-1.9,29.91,ENE,68,8.9,8.9,32,0.00,,,0.00,WUHU216HW,2013-01-09 17:35:00,
2013-01-09 12:59:00,24.1,-1.6,29.87,East,90,4.7,4.7,32,0.00,,,0.00,WUHU216HW,2013-01-09 17:59:00,
2013-01-09 13:00:00,24.1,-1.6,29.87,East,90,4.7,4.7,32,0.00,,,0.00,WUHU216HW,2013-01-09 18:00:00,
2013-01-09 13:05:00,24.1,-1.6,29.87,East,90,4.7,4.7,32,0.00,,,0.00,WUHU216HW,2013-01-09 18:05:00,
2013-01-09 13:29:00,24.8,-0.9,29.87,ESE,113,3.1,3.1,32,0.00,,,0.00,WUHU216HW,2013-01-09 18:29:00,
2013-01-09 13:30:00,24.8,-0.9,29.87,ESE,113,3.1,3.1,32,0.00,,,0.00,WUHU216HW,2013-01-09 18:30:00,
2013-01-09 13:34:00,24.8,-0.9,29.87,ESE,113,3.1,3.1,32,0.00,,,0.00,WUHU216HW,2013-01-09 18:34:00,
2013-01-09 13:35:00,24.8,-0.9,29.87,ESE,113,3.1,3.1,32,0.00,,,0.00,WUHU216HW,2013-01-09 18:35:00,
2013-01-09 13:59:00,26.8,-2.2,29.83,SW,225,0.4,0.4,28,0.00,,,0.00,WUHU216HW,2013-01-09 18:59:00,
2013-01-09 14:00:00,26.8,-2.2,29.83,SW,225,0.4,0.4,28,0.00,,,0.00,WUHU216HW,2013-01-09 19:00:00,
2013-01-09 14:04:00,26.8,-2.2,29.83,SW,225,0.4,0.4,28,0.00,,,0.00,WUHU216HW,2013-01-09 19:04:00,
2013-01-09 14:05:00,26.8,-2.2,29.83,SW,225,0.4,0.4,28,0.00,,,0.00,WUHU216HW,2013-01-09 19:05:00,
2013-01-09 14:29:00,28.6,4.2,29.82,WSW,248,0.2,0.2,35,0.00,,,0.00,WUHU216HW,2013-01-09 19:29:00,
2013-01-09 14:30:00,28.6,4.2,29.82,WSW,248,0.2,0.2,35,0.00,,,0.00,WUHU216HW,2013-01-09 19:30:00,
2013-01-09 14:34:00,28.6,4.2,29.82,WSW,248,0.2,0.2,35,0.00,,,0.00,WUHU216HW,2013-01-09 19:34:00,
2013-01-09 14:35:00,28.6,4.2,29.82,WSW,248,0.2,0.2,35,0.00,,,0.00,WUHU216HW,2013-01-09 19:35:00,
2013-01-09 14:59:00,29.2,10.9,29.80,NNE,23,5.4,5.4,46,0.00,,,0.00,WUHU216HW,2013-01-09 19:59:00,
2013-01-09 15:00:00,29.2,10.9,29.80,NNE,23,5.4,5.4,46,0.00,,,0.00,WUHU216HW,2013-01-09 20:00:00,
2013-01-09 15:05:00,29.2,10.9,29.80,NNE,23,5.4,5.4,46,0.00,,,0.00,WUHU216HW,2013-01-09 20:05:00,
2013-01-09 15:29:00,31.1,12.7,29.77,NE,45,1.8,1.8,46,0.00,,,0.00,WUHU216HW,2013-01-09 20:29:00,
2013-01-09 15:30:00,31.1,12.7,29.77,NE,45,1.8,1.8,46,0.00,,,0.00,WUHU216HW,2013-01-09 20:30:00,
2013-01-09 15:34:00,31.1,12.7,29.77,NE,45,1.8,1.8,46,0.00,,,0.00,WUHU216HW,2013-01-09 20:34:00,
2013-01-09 15:35:00,31.1,12.7,29.77,NE,45,1.8,1.8,46,0.00,,,0.00,WUHU216HW,2013-01-09 20:35:00,
2013-01-09 15:59:00,31.1,15.1,29.76,ENE,68,3.8,3.8,51,0.00,,,0.00,WUHU216HW,2013-01-09 20:59:00,
2013-01-09 16:00:00,31.1,15.1,29.76,ENE,68,3.8,3.8,51,0.00,,,0.00,WUHU216HW,2013-01-09 21:00:00,
2013-01-09 16:04:00,31.1,15.1,29.76,ENE,68,3.8,3.8,51,0.00,,,0.00,WUHU216HW,2013-01-09 21:04:00,
2013-01-09 16:05:00,31.1,15.1,29.76,ENE,68,3.8,3.8,51,0.00,,,0.00,WUHU216HW,2013-01-09 21:05:00,
2013-01-09 16:29:00,32.2,14.7,29.77,NE,45,1.8,1.8,48,0.00,,,0.00,WUHU216HW,2013-01-09 21:29:00,
2013-01-09 16:30:00,32.2,14.7,29.77,NE,45,1.8,1.8,48,0.00,,,0.00,WUHU216HW,2013-01-09 21:30:00,
2013-01-09 16:34:00,32.2,14.7,29.77,NE,45,1.8,1.8,48,0.00,,,0.00,WUHU216HW,2013-01-09 21:34:00,
2013-01-09 16:35:00,32.2,14.7,29.77,NE,45,1.8,1.8,48,0.00,,,0.00,WUHU216HW,2013-01-09 21:35:00,
2013-01-09 16:59:00,35.8,12.5,29.77,SW,225,3.6,3.6,38,0.00,,,0.00,WUHU216HW,2013-01-09 21:59:00,
2013-01-09 17:00:00,35.8,12.5,29.77,SW,225,3.6,3.6,38,0.00,,,0.00,WUHU216HW,2013-01-09 22:00:00,
2013-01-09 17:04:00,35.8,12.5,29.77,SW,225,3.6,3.6,38,0.00,,,0.00,WUHU216HW,2013-01-09 22:04:00,
2013-01-09 17:05:00,35.8,12.5,29.77,SW,225,3.6,3.6,38,0.00,,,0.00,WUHU216HW,2013-01-09 22:05:00,
2013-01-09 17:29:00,41.6,25.2,29.78,WSW,248,9.8,9.8,52,0.00,,,0.00,WUHU216HW,2013-01-09 22:29:00,
2013-01-09 17:30:00,41.6,25.2,29.78,WSW,248,9.8,9.8,52,0.00,,,0.00,WUHU216HW,2013-01-09 22:30:00,
2013-01-09 17:34:00,41.6,25.2,29.78,WSW,248,9.8,9.8,52,0.00,,,0.00,WUHU216HW,2013-01-09 22:34:00,
2013-01-09 17:35:00,41.6,25.2,29.78,WSW,248,9.8,9.8,52,0.00,,,0.00,WUHU216HW,2013-01-09 22:35:00,
2013-01-09 17:59:00,42.8,29.9,29.80,West,270,7.6,7.6,60,0.00,,,0.00,WUHU216HW,2013-01-09 22:59:00,
2013-01-09 18:00:00,42.8,29.9,29.80,West,270,7.6,7.6,60,0.00,,,0.00,WUHU216HW,2013-01-09 23:00:00,
2013-01-09 18:04:00,42.8,29.9,29.80,West,270,7.6,7.6,60,0.00,,,0.00,WUHU216HW,2013-01-09 23:04:00,
2013-01-09 18:05:00,42.8,29.9,29.80,West,270,7.6,7.6,60,0.00,,,0.00,WUHU216HW,2013-01-09 23:05:00,
2013-01-09 18:29:00,42.1,28.8,29.81,WNW,293,3.8,3.8,59,0.00,,,0.00,WUHU216HW,2013-01-09 23:29:00,
2013-01-09 18:30:00,42.1,28.8,29.81,WNW,293,3.8,3.8,59,0.00,,,0.00,WUHU216HW,2013-01-09 23:30:00,
2013-01-09 18:35:00,42.1,28.8,29.81,WNW,293,3.8,3.8,59,0.00,,,0.00,WUHU216HW,2013-01-09 23:35:00,
2013-01-09 18:59:00,41.0,29.4,29.84,NW,315,8.3,8.3,63,0.00,,,0.00,WUHU216HW,2013-01-09 23:59:00,
2013-01-09 19:00:00,41.0,29.4,29.84,NW,315,8.3,8.3,63,0.00,,,0.00,WUHU216HW,2013-01-10 00:00:00,
2013-01-09 19:05:00,41.0,29.4,29.84,NW,315,8.3,8.3,63,0.00,,,0.00,WUHU216HW,2013-01-10 00:05:00,
2013-01-09 19:29:00,42.8,28.2,29.86,West,270,6.9,6.9,56,0.00,,,0.00,WUHU216HW,2013-01-10 00:29:00,
2013-01-09 19:30:00,42.8,28.2,29.86,West,270,6.9,6.9,56,0.00,,,0.00,WUHU216HW,2013-01-10 00:30:00,
2013-01-09 19:34:00,42.8,28.2,29.86,West,270,6.9,6.9,56,0.00,,,0.00,WUHU216HW,2013-01-10 00:34:00,
2013-01-09 19:35:00,42.8,28.2,29.86,West,270,6.9,6.9,56,0.00,,,0.00,WUHU216HW,2013-01-10 00:35:00,
2013-01-09 19:59:00,42.5,26.9,29.87,SW,225,17.2,17.2,54,0.00,,,0.00,WUHU216HW,2013-01-10 00:59:00,
2013-01-09 20:00:00,42.5,26.9,29.87,SW,225,17.2,17.2,54,0.00,,,0.00,WUHU216HW,2013-01-10 01:00:00,
2013-01-09 20:04:00,42.5,26.9,29.87,SW,225,17.2,17.2,54,0.00,,,0.00,WUHU216HW,2013-01-10 01:04:00,
2013-01-09 20:05:00,42.5,26.9,29.87,SW,225,17.2,17.2,54,0.00,,,0.00,WUHU216HW,2013-01-10 01:05:00,
2013-01-09 20:29:00,42.1,27.9,29.87,West,270,14.5,14.5,57,0.00,,,0.00,WUHU216HW,2013-01-10 01:29:00,
2013-01-09 20:30:00,42.1,27.9,29.87,West,270,14.5,14.5,57,0.00,,,0.00,WUHU216HW,2013-01-10 01:30:00,
2013-01-09 20:34:00,42.1,27.9,29.87,West,270,14.5,14.5,57,0.00,,,0.00,WUHU216HW,2013-01-10 01:34:00,
2013-01-09 20:35:00,42.1,27.9,29.87,West,270,14.5,14.5,57,0.00,,,0.00,WUHU216HW,2013-01-10 01:35:00,
2013-01-09 20:59:00,42.3,28.1,29.87,West,270,15.9,15.9,57,0.00,,,0.00,WUHU216HW,2013-01-10 01:59:00,
2013-01-09 21:04:00,42.3,28.1,29.87,West,270,15.9,15.9,57,0.00,,,0.00,WUHU216HW,2013-01-10 02:04:00,
2013-01-09 21:05:00,42.3,28.1,29.87,West,270,15.9,15.9,57,0.00,,,0.00,WUHU216HW,2013-01-10 02:05:00,
2013-01-09 21:29:00,42.3,28.5,29.89,WSW,248,11.2,11.2,58,0.00,,,0.00,WUHU216HW,2013-01-10 02:29:00,
2013-01-09 21:30:00,42.3,28.5,29.89,WSW,248,11.2,11.2,58,0.00,,,0.00,WUHU216HW,2013-01-10 02:30:00,
2013-01-09 21:34:00,42.3,28.5,29.89,WSW,248,11.2,11.2,58,0.00,,,0.00,WUHU216HW,2013-01-10 02:34:00,
2013-01-09 21:35:00,42.3,28.5,29.89,WSW,248,11.2,11.2,58,0.00,,,0.00,WUHU216HW,2013-01-10 02:35:00,
2013-01-09 21:59:00,42.1,29.3,29.90,WNW,293,12.1,12.1,60,0.00,,,0.00,WUHU216HW,2013-01-10 02:59:00,
2013-01-09 22:00:00,42.1,29.3,29.90,WNW,293,12.1,12.1,60,0.00,,,0.00,WUHU216HW,2013-01-10 03:00:00,
2013-01-09 22:04:00,42.1,29.3,29.90,WNW,293,12.1,12.1,60,0.00,,,0.00,WUHU216HW,2013-01-10 03:04:00,
2013-01-09 22:05:00,42.1,29.3,29.90,WNW,293,12.1,12.1,60,0.00,,,0.00,WUHU216HW,2013-01-10 03:05:00,
2013-01-09 22:29:00,41.8,29.7,29.91,WNW,293,16.6,16.6,62,0.00,,,0.00,WUHU216HW,2013-01-10 03:29:00,
2013-01-09 22:30:00,41.8,29.7,29.91,WNW,293,16.6,16.6,62,0.00,,,0.00,WUHU216HW,2013-01-10 03:30:00,
2013-01-09 22:34:00,41.8,29.7,29.91,WNW,293,16.6,16.6,62,0.00,,,0.00,WUHU216HW,2013-01-10 03:34:00,
2013-01-09 22:35:00,41.8,29.7,29.91,WNW,293,16.6,16.6,62,0.00,,,0.00,WUHU216HW,2013-01-10 03:35:00,
2013-01-09 22:59:00,41.6,29.5,29.92,West,270,17.9,17.9,62,0.00,,,0.00,WUHU216HW,2013-01-10 03:59:00,
2013-01-09 23:04:00,41.6,29.5,29.92,West,270,17.9,17.9,62,0.00,,,0.00,WUHU216HW,2013-01-10 04:04:00,
2013-01-09 23:05:00,41.6,29.5,29.92,West,270,17.9,17.9,62,0.00,,,0.00,WUHU216HW,2013-01-10 04:05:00,
2013-01-09 23:29:00,40.9,29.3,29.96,WSW,248,11.2,11.2,63,0.00,,,0.00,WUHU216HW,2013-01-10 04:29:00,
2013-01-09 23:30:00,40.9,29.3,29.96,WSW,248,11.2,11.2,63,0.00,,,0.00,WUHU216HW,2013-01-10 04:30:00,
2013-01-09 23:34:00,40.9,29.3,29.96,WSW,248,11.2,11.2,63,0.00,,,0.00,WUHU216HW,2013-01-10 04:34:00,
2013-01-09 23:35:00,40.9,29.3,29.96,WSW,248,11.2,11.2,63,0.00,,,0.00,WUHU216HW,2013-01-10 04:35:00,
2013-01-09 23:59:00,40.0,28.4,29.98,West,270,9.4,9.4,63,0.00,,,0.00,WUHU216HW,2013-01-10 04:59:00,